カタログに戻る

KINEIS-5D

運用中通信SSO
NORAD 62082·PAYLOAD·🇫🇷 France

打ち上げ Nov 25, 2024 から Rocket Lab Launch Complex 1

Loading…

次のパス (今後24時間)

TLE

最新Source: Space-Track

元期: Sep 14, 2026, 22:07 UTC

1 62082U 24219B   26257.92209822  .00000717  00000-0  12034-3 0  9990
2 62082  97.9265  54.5134 0004724   1.8488 358.2737 14.72583039 96963

AllMySatでKINEIS-5Dをリアルタイム追跡

Download on the App Store